| time (UTC) | temp C | wind direction | speed KPH | gust KPH | rain 1hr cm | rain 24hr cm | rain mn cm | humidity % | barometer mb |
| 20260507180519 | 21 | 0 | 0.0 | 1.6 | 0.03 | 0.53 | 0.33 | 97 | 1009.0 |
| 20260507180040 | 21 | 0 | 0.0 | 1.6 | 0.03 | 0.53 | 0.33 | 97 | 1009.1 |
| 20260507175520 | 21 | 0 | 0.0 | 8.0 | 0.03 | 0.53 | 0.33 | 98 | 1009.4 |
| 20260507175020 | 21 | 0 | 0.0 | 8.0 | 0.00 | 0.51 | 0.30 | 98 | 1009.4 |
| 20260507174535 | 21 | 295 | 0.0 | 6.4 | 0.00 | 0.51 | 0.30 | 98 | 1009.5 |
| 20260507174020 | 21 | 0 | 0.0 | 3.2 | 0.03 | 0.51 | 0.30 | 98 | 1009.3 |
| 20260507173520 | 21 | 242 | 0.0 | 3.2 | 0.03 | 0.51 | 0.30 | 98 | 1009.4 |
| 20260507173035 | 21 | 0 | 0.0 | 1.6 | 0.03 | 0.51 | 0.30 | 98 | 1009.5 |
| 20260507172520 | 21 | 0 | 0.0 | 1.6 | 0.03 | 0.51 | 0.30 | 98 | 1009.6 |
| 20260507172019 | 21 | 0 | 0.0 | 3.2 | 0.03 | 0.51 | 0.30 | 98 | 1009.8 |
| 20260507171548 | 21 | 0 | 0.0 | 3.2 | 0.03 | 0.51 | 0.30 | 98 | 1009.9 |
| 20260507171019 | 21 | 0 | 0.0 | 3.2 | 0.03 | 0.51 | 0.30 | 98 | 1009.8 |
| 20260507170520 | 20 | 0 | 0.0 | 0.0 | 0.03 | 0.51 | 0.30 | 98 | 1009.6 |
| 20260507170037 | 20 | 0 | 0.0 | 0.0 | 0.03 | 0.51 | 0.30 | 98 | 1010.1 |
| 20260507165519 | 20 | 0 | 0.0 | 0.0 | 0.03 | 0.51 | 0.30 | 97 | 1009.8 |
| 20260507165019 | 20 | 0 | 0.0 | 0.0 | 0.03 | 0.51 | 0.30 | 98 | 1010.1 |
| 20260507164544 | 20 | 0 | 0.0 | 1.6 | 0.03 | 0.51 | 0.30 | 98 | 1010.1 |
| 20260507164019 | 20 | 0 | 0.0 | 1.6 | 0.00 | 0.48 | 0.28 | 97 | 1010.2 |
| 20260507163521 | 20 | 0 | 0.0 | 1.6 | 0.00 | 0.48 | 0.28 | 98 | 1010.2 |
| 20260507163043 | 20 | 0 | 0.0 | 1.6 | 0.00 | 0.48 | 0.28 | 98 | 1010.2 |
| 20260507162520 | 20 | 0 | 0.0 | 0.0 | 0.00 | 0.48 | 0.28 | 97 | 1010.2 |
| 20260507162020 | 20 | 0 | 0.0 | 0.0 | 0.00 | 0.48 | 0.28 | 97 | 1010.0 |
| 20260507161541 | 20 | 0 | 0.0 | 0.0 | 0.00 | 0.48 | 0.28 | 97 | 1010.3 |
| 20260507161019 | 20 | 0 | 0.0 | 0.0 | 0.00 | 0.48 | 0.28 | 97 | 1010.4 |
| 20260507160520 | 20 | 0 | 0.0 | 0.0 | 0.00 | 0.48 | 0.28 | 98 | 1010.4 |
| 20260507160045 | 20 | 0 | 0.0 | 0.0 | 0.00 | 0.48 | 0.28 | 97 | 1010.3 |
| 20260507155519 | 20 | 0 | 0.0 | 0.0 | 0.00 | 0.48 | 0.28 | 97 | 1010.2 |
| 20260507155019 | 20 | 0 | 0.0 | 0.0 | 0.00 | 0.48 | 0.28 | 97 | 1010.4 |
| 20260507154538 | 20 | 0 | 0.0 | 1.6 | 0.00 | 0.48 | 0.28 | 97 | 1010.5 |
| 20260507154019 | 20 | 0 | 0.0 | 1.6 | 0.00 | 0.48 | 0.28 | 97 | 1010.5 |
| 20260507153519 | 20 | 0 | 0.0 | 1.6 | 0.03 | 0.48 | 0.28 | 97 | 1010.7 |
| 20260507153043 | 20 | 0 | 0.0 | 0.0 | 0.03 | 0.48 | 0.28 | 97 | 1010.9 |
| 20260507152519 | 20 | 0 | 0.0 | 1.6 | 0.03 | 0.48 | 0.28 | 97 | 1010.8 |
| 20260507152020 | 20 | 0 | 0.0 | 4.8 | 0.03 | 0.48 | 0.28 | 97 | 1010.9 |
| 20260507151535 | 20 | 0 | 0.0 | 4.8 | 0.03 | 0.48 | 0.28 | 97 | 1011.0 |
| 20260507151021 | 20 | 290 | 0.0 | 8.0 | 0.03 | 0.48 | 0.28 | 97 | 1011.1 |
| 20260507150520 | 20 | 0 | 0.0 | 8.0 | 0.03 | 0.48 | 0.28 | 97 | 1011.2 |
| 20260507150036 | 20 | 0 | 0.0 | 9.7 | 0.03 | 0.48 | 0.28 | 97 | 1011.3 |
| 20260507145519 | 20 | 0 | 0.0 | 9.7 | 0.05 | 0.48 | 0.28 | 97 | 1011.3 |
| 20260507145025 | 20 | 0 | 1.6 | 4.8 | 0.05 | 0.48 | 0.28 | 97 | 1011.1 |
| 20260507144535 | 20 | 0 | 0.0 | 0.0 | 0.05 | 0.48 | 0.28 | 97 | 1010.2 |
| 20260507144020 | 20 | 0 | 0.0 | 0.0 | 0.05 | 0.48 | 0.28 | 97 | 1010.4 |
| 20260507143519 | 20 | 0 | 0.0 | 0.0 | 0.03 | 0.46 | 0.25 | 97 | 1010.4 |
| 20260507143034 | 20 | 0 | 0.0 | 0.0 | 0.03 | 0.46 | 0.25 | 97 | 1010.1 |
| 20260507142521 | 20 | 0 | 0.0 | 0.0 | 0.03 | 0.46 | 0.25 | 97 | 1010.0 |
| 20260507142019 | 20 | 0 | 0.0 | 1.6 | 0.03 | 0.46 | 0.25 | 97 | 1010.0 |
| 20260507141543 | 20 | 0 | 0.0 | 1.6 | 0.03 | 0.46 | 0.25 | 97 | 1010.1 |
| 20260507141022 | 20 | 0 | 0.0 | 4.8 | 0.03 | 0.46 | 0.25 | 97 | 1010.2 |
| 20260507140522 | 20 | 0 | 0.0 | 4.8 | 0.05 | 0.46 | 0.25 | 97 | 1010.3 |
| 20260507140038 | 20 | 0 | 0.0 | 0.0 | 0.05 | 0.46 | 0.25 | 97 | 1010.4 |
| 20260507135519 | 20 | 0 | 0.0 | 0.0 | 0.03 | 0.43 | 0.23 | 97 | 1010.4 |
| 20260507135020 | 20 | 0 | 0.0 | 1.6 | 0.03 | 0.43 | 0.23 | 97 | 1010.6 |
| 20260507134536 | 20 | 0 | 0.0 | 1.6 | 0.03 | 0.43 | 0.23 | 97 | 1010.4 |
| 20260507134021 | 20 | 0 | 0.0 | 0.0 | 0.05 | 0.43 | 0.23 | 97 | 1010.3 |
| 20260507133520 | 20 | 0 | 0.0 | 0.0 | 0.05 | 0.43 | 0.23 | 97 | 1010.3 |
| 20260507133032 | 20 | 0 | 0.0 | 0.0 | 0.05 | 0.43 | 0.23 | 97 | 1010.4 |
| 20260507132519 | 20 | 0 | 0.0 | 0.0 | 0.05 | 0.43 | 0.23 | 97 | 1010.7 |
| 20260507132020 | 20 | 0 | 0.0 | 0.0 | 0.05 | 0.43 | 0.23 | 97 | 1011.1 |
| 20260507131536 | 20 | 0 | 0.0 | 0.0 | 0.05 | 0.43 | 0.23 | 97 | 1011.3 |
| 20260507131020 | 20 | 0 | 0.0 | 1.6 | 0.05 | 0.43 | 0.23 | 97 | 1011.3 |
| 20260507130519 | 20 | 0 | 0.0 | 1.6 | 0.03 | 0.41 | 0.20 | 97 | 1011.3 |
| 20260507130050 | 20 | 0 | 0.0 | 1.6 | 0.03 | 0.41 | 0.20 | 97 | 1011.4 |
| 20260507125519 | 20 | 0 | 0.0 | 0.0 | 0.03 | 0.41 | 0.20 | 97 | 1011.2 |
| 20260507125020 | 20 | 0 | 0.0 | 1.6 | 0.03 | 0.41 | 0.20 | 97 | 1010.7 |
| 20260507124555 | 20 | 0 | 0.0 | 1.6 | 0.03 | 0.41 | 0.20 | 97 | 1010.4 |
| 20260507124021 | 19 | 0 | 0.0 | 0.0 | 0.03 | 0.38 | 0.18 | 97 | 1010.3 |
| 20260507123519 | 19 | 0 | 0.0 | 0.0 | 0.03 | 0.38 | 0.18 | 97 | 1010.1 |
| 20260507123036 | 19 | 0 | 0.0 | 0.0 | 0.03 | 0.38 | 0.18 | 97 | 1010.1 |
| 20260507122519 | 19 | 0 | 0.0 | 0.0 | 0.03 | 0.38 | 0.18 | 97 | 1010.0 |
| 20260507122019 | 19 | 0 | 0.0 | 0.0 | 0.05 | 0.38 | 0.18 | 97 | 1010.1 |
| 20260507121537 | 19 | 0 | 0.0 | 0.0 | 0.05 | 0.38 | 0.18 | 97 | 1010.2 |
| 20260507121020 | 19 | 0 | 0.0 | 0.0 | 0.05 | 0.38 | 0.18 | 97 | 1010.1 |
| 20260507120524 | 19 | 0 | 0.0 | 0.0 | 0.05 | 0.38 | 0.18 | 97 | 1010.1 |
| 20260507120035 | 19 | 0 | 0.0 | 1.6 | 0.05 | 0.38 | 0.18 | 97 | 1009.9 |
| 20260507115520 | 19 | 0 | 0.0 | 1.6 | 0.05 | 0.38 | 0.18 | 96 | 1010.3 |
| 20260507115024 | 19 | 0 | 0.0 | 3.2 | 0.05 | 0.38 | 0.18 | 96 | 1009.6 |
| 20260507114544 | 19 | 0 | 0.0 | 3.2 | 0.05 | 0.38 | 0.18 | 96 | 1009.9 |
| 20260507114020 | 19 | 0 | 0.0 | 3.2 | 0.03 | 0.36 | 0.15 | 96 | 1010.1 |
| 20260507113519 | 19 | 0 | 0.0 | 1.6 | 0.03 | 0.36 | 0.15 | 96 | 1010.6 |
| 20260507113032 | 19 | 0 | 0.0 | 3.2 | 0.03 | 0.36 | 0.15 | 96 | 1011.1 |
| 20260507112519 | 19 | 0 | 0.0 | 4.8 | 0.03 | 0.36 | 0.15 | 96 | 1011.6 |
| 20260507112019 | 19 | 0 | 0.0 | 4.8 | 0.00 | 0.33 | 0.13 | 96 | 1012.3 |
| 20260507111538 | 19 | 0 | 0.0 | 0.0 | 0.00 | 0.33 | 0.13 | 96 | 1012.6 |
| 20260507111019 | 19 | 0 | 0.0 | 1.6 | 0.00 | 0.33 | 0.13 | 96 | 1012.3 |
| 20260507110520 | 19 | 0 | 0.0 | 9.7 | 0.00 | 0.33 | 0.13 | 96 | 1012.1 |
| 20260507110043 | 19 | 0 | 0.0 | 9.7 | 0.00 | 0.33 | 0.13 | 96 | 1012.2 |
| 20260507105519 | 19 | 0 | 0.0 | 3.2 | 0.00 | 0.33 | 0.13 | 96 | 1012.3 |
| 20260507105020 | 19 | 0 | 0.0 | 4.8 | 0.00 | 0.33 | 0.13 | 96 | 1012.3 |
| 20260507104540 | 19 | 0 | 0.0 | 4.8 | 0.00 | 0.33 | 0.13 | 96 | 1012.5 |
| 20260507104022 | 19 | 0 | 0.0 | 3.2 | 0.00 | 0.33 | 0.13 | 96 | 1012.1 |
| 20260507103520 | 19 | 0 | 0.0 | 3.2 | 0.00 | 0.33 | 0.13 | 96 | 1011.8 |
| 20260507103040 | 19 | 0 | 0.0 | 3.2 | 0.03 | 0.33 | 0.13 | 96 | 1011.7 |
| 20260507102519 | 19 | 0 | 0.0 | 3.2 | 0.03 | 0.33 | 0.13 | 96 | 1011.5 |
| 20260507102020 | 19 | 0 | 0.0 | 3.2 | 0.03 | 0.33 | 0.13 | 96 | 1011.6 |
| 20260507101535 | 19 | 0 | 0.0 | 3.2 | 0.03 | 0.33 | 0.13 | 96 | 1011.6 |
| 20260507101020 | 19 | 0 | 0.0 | 3.2 | 0.03 | 0.33 | 0.13 | 96 | 1011.6 |
| 20260507100520 | 19 | 0 | 0.0 | 3.2 | 0.03 | 0.33 | 0.13 | 96 | 1011.5 |
| 20260507100036 | 19 | 0 | 0.0 | 0.0 | 0.03 | 0.33 | 0.13 | 96 | 1011.6 |
| 20260507095520 | 19 | 0 | 0.0 | 0.0 | 0.03 | 0.33 | 0.13 | 96 | 1011.5 |
| 20260507095022 | 19 | 0 | 0.0 | 0.0 | 0.03 | 0.33 | 0.13 | 96 | 1011.6 |
| 20260507094536 | 19 | 0 | 0.0 | 0.0 | 0.03 | 0.33 | 0.13 | 96 | 1011.9 |
| 20260507094019 | 19 | 0 | 0.0 | 0.0 | 0.03 | 0.33 | 0.13 | 96 | 1012.2 |
| 20260507093519 | 19 | 0 | 0.0 | 1.6 | 0.03 | 0.33 | 0.13 | 96 | 1012.3 |
| 20260507093040 | 19 | 0 | 0.0 | 1.6 | 0.03 | 0.30 | 0.10 | 96 | 1012.1 |
| 20260507092521 | 19 | 0 | 0.0 | 0.0 | 0.03 | 0.30 | 0.10 | 96 | 1012.2 |
| 20260507092019 | 19 | 0 | 0.0 | 0.0 | 0.03 | 0.30 | 0.10 | 95 | 1012.2 |
| 20260507091541 | 19 | 0 | 0.0 | 0.0 | 0.03 | 0.30 | 0.10 | 96 | 1012.1 |
| 20260507091020 | 19 | 0 | 0.0 | 0.0 | 0.03 | 0.30 | 0.10 | 96 | 1012.3 |
| 20260507090520 | 19 | 0 | 0.0 | 3.2 | 0.03 | 0.30 | 0.10 | 96 | 1012.2 |
| 20260507090035 | 19 | 0 | 0.0 | 3.2 | 0.03 | 0.30 | 0.10 | 96 | 1012.2 |
| 20260507085520 | 19 | 0 | 0.0 | 0.0 | 0.03 | 0.30 | 0.10 | 96 | 1012.2 |
| 20260507085020 | 19 | 0 | 0.0 | 0.0 | 0.03 | 0.30 | 0.10 | 96 | 1012.2 |
| 20260507084534 | 19 | 0 | 0.0 | 0.0 | 0.03 | 0.30 | 0.10 | 95 | 1012.2 |
| 20260507084019 | 19 | 0 | 0.0 | 0.0 | 0.03 | 0.30 | 0.10 | 95 | 1011.9 |
| 20260507083519 | 19 | 0 | 0.0 | 0.0 | 0.03 | 0.30 | 0.10 | 95 | 1011.6 |
| 20260507083036 | 19 | 0 | 0.0 | 0.0 | 0.00 | 0.28 | 0.08 | 95 | 1011.4 |
| 20260507082521 | 19 | 0 | 0.0 | 0.0 | 0.00 | 0.28 | 0.08 | 95 | 1011.5 |
| 20260507082019 | 19 | 0 | 0.0 | 1.6 | 0.00 | 0.28 | 0.08 | 95 | 1011.6 |
| 20260507081536 | 19 | 0 | 0.0 | 1.6 | 0.00 | 0.28 | 0.08 | 95 | 1011.7 |
| 20260507081019 | 19 | 0 | 0.0 | 1.6 | 0.00 | 0.28 | 0.08 | 95 | 1011.8 |
| 20260507080519 | 19 | 0 | 0.0 | 1.6 | 0.00 | 0.28 | 0.08 | 95 | 1011.8 |
| 20260507080042 | 19 | 0 | 0.0 | 1.6 | 0.00 | 0.28 | 0.08 | 95 | 1011.9 |
| 20260507075519 | 19 | 0 | 0.0 | 0.0 | 0.03 | 0.28 | 0.08 | 95 | 1011.9 |
| 20260507075020 | 19 | 0 | 0.0 | 0.0 | 0.03 | 0.28 | 0.08 | 95 | 1011.8 |
| 20260507074538 | 19 | 0 | 0.0 | 0.0 | 0.03 | 0.28 | 0.08 | 95 | 1011.7 |
| 20260507074019 | 19 | 0 | 0.0 | 0.0 | 0.03 | 0.28 | 0.08 | 95 | 1011.8 |
| 20260507073519 | 19 | 0 | 0.0 | 0.0 | 0.03 | 0.28 | 0.08 | 95 | 1011.8 |
| 20260507073042 | 19 | 0 | 0.0 | 0.0 | 0.03 | 0.28 | 0.08 | 95 | 1011.8 |
| 20260507072517 | 19 | 0 | 0.0 | 0.0 | 0.03 | 0.28 | 0.08 | 95 | 1011.8 |
| 20260507072018 | 19 | 0 | 0.0 | 0.0 | 0.03 | 0.28 | 0.08 | 95 | 1011.9 |
| 20260507071537 | 19 | 0 | 0.0 | 0.0 | 0.03 | 0.28 | 0.08 | 94 | 1011.9 |
| 20260507071019 | 19 | 0 | 0.0 | 0.0 | 0.03 | 0.28 | 0.08 | 94 | 1011.8 |
| 20260507070520 | 19 | 0 | 0.0 | 1.6 | 0.03 | 0.28 | 0.08 | 94 | 1011.7 |
| 20260507070037 | 19 | 0 | 0.0 | 1.6 | 0.03 | 0.28 | 0.08 | 94 | 1011.7 |
| 20260507065521 | 19 | 0 | 0.0 | 0.0 | 0.00 | 0.25 | 0.05 | 94 | 1011.8 |
| 20260507065019 | 19 | 0 | 0.0 | 0.0 | 0.00 | 0.25 | 0.05 | 94 | 1011.9 |
| 20260507064536 | 19 | 0 | 0.0 | 0.0 | 0.00 | 0.25 | 0.05 | 94 | 1011.9 |
| 20260507064022 | 19 | 0 | 0.0 | 1.6 | 0.03 | 0.25 | 0.05 | 94 | 1011.9 |
| 20260507063522 | 19 | 0 | 0.0 | 1.6 | 0.03 | 0.25 | 0.05 | 94 | 1012.2 |
| 20260507063051 | 19 | 0 | 0.0 | 0.0 | 0.03 | 0.25 | 0.05 | 94 | 1011.9 |
| 20260507062520 | 19 | 0 | 0.0 | 0.0 | 0.03 | 0.25 | 0.05 | 94 | 1011.9 |
| 20260507062020 | 19 | 0 | 0.0 | 0.0 | 0.03 | 0.25 | 0.05 | 94 | 1011.9 |
| 20260507061535 | 19 | 0 | 0.0 | 0.0 | 0.03 | 0.25 | 0.05 | 94 | 1011.9 |
| 20260507061018 | 19 | 0 | 0.0 | 1.6 | 0.03 | 0.25 | 0.05 | 93 | 1011.9 |
| 20260507060520 | 19 | 0 | 0.0 | 1.6 | 0.03 | 0.25 | 0.05 | 93 | 1012.0 |
| 20260507060043 | 19 | 0 | 0.0 | 0.0 | 0.03 | 0.25 | 0.05 | 93 | 1012.1 |
| 20260507055520 | 19 | 0 | 0.0 | 0.0 | 0.03 | 0.25 | 0.05 | 93 | 1012.1 |
| 20260507055019 | 19 | 0 | 0.0 | 0.0 | 0.03 | 0.25 | 0.05 | 93 | 1012.2 |
| 20260507054541 | 20 | 0 | 0.0 | 0.0 | 0.03 | 0.25 | 0.05 | 93 | 1012.0 |
| 20260507054019 | 20 | 0 | 0.0 | 0.0 | 0.00 | 0.23 | 0.03 | 93 | 1011.9 |
| 20260507053520 | 20 | 0 | 0.0 | 0.0 | 0.00 | 0.23 | 0.03 | 93 | 1012.0 |
| 20260507053035 | 20 | 0 | 0.0 | 0.0 | 0.00 | 0.23 | 0.03 | 93 | 1012.2 |
| 20260507052521 | 20 | 0 | 0.0 | 0.0 | 0.00 | 0.23 | 0.03 | 93 | 1012.1 |
| 20260507052021 | 20 | 0 | 0.0 | 0.0 | 0.03 | 0.23 | 0.03 | 93 | 1012.2 |
| 20260507051536 | 20 | 0 | 0.0 | 0.0 | 0.03 | 0.23 | 0.03 | 93 | 1012.3 |
| 20260507051020 | 20 | 0 | 0.0 | 0.0 | 0.03 | 0.23 | 0.03 | 93 | 1012.7 |
| 20260507050520 | 20 | 0 | 0.0 | 0.0 | 0.03 | 0.23 | 0.03 | 93 | 1012.6 |
| 20260507050036 | 20 | 0 | 0.0 | 0.0 | 0.03 | 0.23 | 0.03 | 92 | 1012.6 |
| 20260507045520 | 20 | 0 | 0.0 | 0.0 | 0.03 | 0.23 | 0.03 | 93 | 1013.0 |
| 20260507045020 | 20 | 0 | 0.0 | 0.0 | 0.05 | 0.23 | 0.03 | 92 | 1013.2 |
| 20260507044542 | 20 | 0 | 0.0 | 0.0 | 0.05 | 0.23 | 0.03 | 92 | 1013.5 |
| 20260507044020 | 20 | 0 | 0.0 | 0.0 | 0.05 | 0.23 | 0.03 | 92 | 1013.7 |
| 20260507043518 | 20 | 0 | 0.0 | 0.0 | 0.05 | 0.23 | 0.03 | 92 | 1014.1 |
| 20260507043038 | 20 | 0 | 0.0 | 0.0 | 0.05 | 0.23 | 0.03 | 91 | 1014.2 |
| 20260507042518 | 20 | 0 | 0.0 | 0.0 | 0.08 | 0.23 | 0.03 | 91 | 1014.2 |
| 20260507042019 | 20 | 0 | 0.0 | 0.0 | 0.05 | 0.20 | 0.00 | 91 | 1014.5 |
| 20260507041537 | 20 | 0 | 0.0 | 0.0 | 0.08 | 0.20 | 0.00 | 91 | 1014.5 |
| 20260507041021 | 20 | 0 | 0.0 | 0.0 | 0.08 | 0.20 | 0.00 | 90 | 1015.1 |
| 20260507040519 | 20 | 0 | 0.0 | 3.2 | 0.10 | 0.20 | 0.00 | 90 | 1014.8 |
| 20260507040035 | 20 | 0 | 0.0 | 3.2 | 0.13 | 0.20 | 0.00 | 90 | 1014.7 |
| 20260507035519 | 20 | 188 | 0.0 | 3.2 | 0.15 | 0.20 | 0.20 | 89 | 1014.9 |
| 20260507035023 | 21 | 0 | 0.0 | 4.8 | 0.15 | 0.18 | 0.18 | 88 | 1015.4 |
| 20260507034537 | 21 | 0 | 0.0 | 6.4 | 0.18 | 0.18 | 0.18 | 87 | 1015.8 |
| 20260507034020 | 21 | 321 | 1.6 | 6.4 | 0.18 | 0.18 | 0.18 | 87 | 1015.9 |
| 20260507033526 | 21 | 298 | 0.0 | 6.4 | 0.18 | 0.18 | 0.18 | 86 | 1016.0 |
| 20260507033039 | 21 | 0 | 0.0 | 8.0 | 0.18 | 0.18 | 0.18 | 85 | 1015.8 |
| 20260507032520 | 22 | 0 | 0.0 | 8.0 | 0.15 | 0.15 | 0.15 | 84 | 1015.9 |
| 20260507032022 | 22 | 0 | 0.0 | 8.0 | 0.13 | 0.13 | 0.13 | 83 | 1015.9 |
| 20260507031537 | 22 | 260 | 0.0 | 9.7 | 0.13 | 0.13 | 0.13 | 82 | 1015.9 |
| 20260507031020 | 23 | 0 | 0.0 | 11.3 | 0.13 | 0.13 | 0.13 | 81 | 1016.0 |
| 20260507030520 | 23 | 0 | 1.6 | 11.3 | 0.10 | 0.10 | 0.10 | 80 | 1015.8 |
| 20260507030036 | 25 | 192 | 0.0 | 6.4 | 0.08 | 0.08 | 0.08 | 79 | 1015.7 |
| 20260507025520 | 25 | 0 | 0.0 | 3.2 | 0.05 | 0.05 | 0.05 | 77 | 1015.9 |
| 20260507025020 | 25 | 0 | 0.0 | 3.2 | 0.03 | 0.03 | 0.03 | 76 | 1014.7 |
| 20260507024537 | 25 | 0 | 0.0 | 3.2 | 0.00 | 0.00 | 0.00 | 72 | 1013.8 |
| 20260507024022 | 25 | 0 | 0.0 | 3.2 | 0.00 | 0.00 | 0.00 | 70 | 1013.1 |
| 20260507023520 | 25 | 0 | 0.0 | 0.0 | 0.00 | 0.00 | 0.00 | 68 | 1012.8 |
| 20260507023035 | 25 | 0 | 0.0 | 1.6 | 0.00 | 0.00 | 0.00 | 68 | 1012.5 |
| 20260507022520 | 25 | 0 | 0.0 | 1.6 | 0.00 | 0.00 | 0.00 | 68 | 1012.5 |
| 20260507022023 | 25 | 0 | 0.0 | 1.6 | 0.00 | 0.00 | 0.00 | 67 | 1012.5 |
| 20260507021537 | 25 | 0 | 0.0 | 1.6 | 0.00 | 0.00 | 0.00 | 67 | 1012.7 |
| 20260507021020 | 25 | 111 | 0.0 | 1.6 | 0.00 | 0.00 | 0.00 | 67 | 1012.5 |
| 20260507020523 | 25 | 0 | 0.0 | 6.4 | 0.00 | 0.00 | 0.00 | 66 | 1012.4 |
| 20260507020042 | 25 | 0 | 0.0 | 6.4 | 0.00 | 0.00 | 0.00 | 66 | 1012.3 |
| 20260507015521 | 25 | 111 | 0.0 | 4.8 | 0.00 | 0.00 | 0.00 | 65 | 1012.2 |
| 20260507015021 | 25 | 0 | 0.0 | 3.2 | 0.00 | 0.00 | 0.00 | 65 | 1012.2 |
| 20260507014543 | 25 | 0 | 0.0 | 3.2 | 0.00 | 0.00 | 0.00 | 65 | 1012.0 |
| 20260507014021 | 25 | 0 | 0.0 | 0.0 | 0.00 | 0.00 | 0.00 | 65 | 1012.1 |
| 20260507013521 | 25 | 0 | 0.0 | 0.0 | 0.00 | 0.00 | 0.00 | 64 | 1012.0 |
| 20260507013047 | 25 | 0 | 0.0 | 0.0 | 0.00 | 0.00 | 0.00 | 63 | 1012.0 |
| 20260507012520 | 25 | 0 | 0.0 | 0.0 | 0.00 | 0.00 | 0.00 | 62 | 1012.0 |
| 20260507012019 | 25 | 0 | 0.0 | 0.0 | 0.00 | 0.00 | 0.00 | 62 | 1011.9 |
| 20260507011536 | 25 | 0 | 0.0 | 0.0 | 0.00 | 0.00 | 0.00 | 61 | 1012.0 |
| 20260507011019 | 25 | 0 | 0.0 | 0.0 | 0.00 | 0.00 | 0.00 | 61 | 1012.1 |
| 20260507010520 | 26 | 0 | 0.0 | 0.0 | 0.00 | 0.00 | 0.00 | 60 | 1012.0 |
| 20260507010046 | 26 | 0 | 0.0 | 0.0 | 0.00 | 0.00 | 0.00 | 60 | 1012.1 |
| 20260507005520 | 26 | 0 | 0.0 | 0.0 | 0.00 | 0.00 | 0.00 | 59 | 1012.0 |
| 20260507005019 | 26 | 0 | 0.0 | 0.0 | 0.00 | 0.00 | 0.00 | 59 | 1012.1 |
| 20260507004535 | 26 | 0 | 0.0 | 0.0 | 0.00 | 0.00 | 0.00 | 58 | 1012.2 |
| 20260507004022 | 26 | 0 | 0.0 | 0.0 | 0.00 | 0.00 | 0.00 | 57 | 1012.1 |
| 20260507003520 | 26 | 0 | 0.0 | 0.0 | 0.00 | 0.00 | 0.00 | 57 | 1012.2 |
| 20260507003039 | 27 | 0 | 0.0 | 0.0 | 0.00 | 0.00 | 0.00 | 56 | 1012.2 |
| 20260507002519 | 27 | 0 | 0.0 | 0.0 | 0.00 | 0.00 | 0.00 | 56 | 1012.2 |
| 20260507002020 | 27 | 0 | 0.0 | 0.0 | 0.00 | 0.00 | 0.00 | 55 | 1012.1 |
| 20260507001535 | 27 | 0 | 0.0 | 0.0 | 0.00 | 0.00 | 0.00 | 54 | 1012.1 |
| 20260507001019 | 27 | 0 | 0.0 | 0.0 | 0.00 | 0.00 | 0.00 | 54 | 1012.0 |
| 20260507000520 | 28 | 0 | 0.0 | 0.0 | 0.00 | 0.00 | 0.00 | 53 | 1012.0 |
| 20260507000036 | 28 | 0 | 0.0 | 0.0 | 0.00 | 0.00 | 0.00 | 53 | 1012.1 |
| 20260506235521 | 28 | 0 | 0.0 | 0.0 | 0.00 | 0.00 | 0.00 | 52 | 1012.0 |
| 20260506235019 | 28 | 0 | 0.0 | 0.0 | 0.00 | 0.00 | 0.00 | 52 | 1012.0 |
| 20260506234538 | 28 | 0 | 0.0 | 1.6 | 0.00 | 0.00 | 0.00 | 51 | 1012.1 |
| 20260506234021 | 29 | 0 | 0.0 | 1.6 | 0.00 | 0.00 | 0.00 | 51 | 1012.1 |
| 20260506233523 | 29 | 0 | 0.0 | 0.0 | 0.00 | 0.00 | 0.00 | 51 | 1012.1 |
| 20260506233054 | 29 | 0 | 0.0 | 3.2 | 0.00 | 0.00 | 0.00 | 51 | 1012.1 |
| 20260506232521 | 29 | 0 | 0.0 | 3.2 | 0.00 | 0.00 | 0.00 | 50 | 1012.1 |
| 20260506232018 | 30 | 0 | 0.0 | 1.6 | 0.00 | 0.00 | 0.00 | 49 | 1012.1 |
| 20260506231541 | 30 | 0 | 0.0 | 3.2 | 0.00 | 0.00 | 0.00 | 49 | 1012.1 |
| 20260506231022 | 30 | 0 | 0.0 | 3.2 | 0.00 | 0.00 | 0.00 | 49 | 1012.2 |
| 20260506230520 | 30 | 0 | 0.0 | 0.0 | 0.00 | 0.00 | 0.00 | 49 | 1012.2 |
| 20260506230037 | 30 | 0 | 0.0 | 4.8 | 0.00 | 0.00 | 0.00 | 49 | 1012.3 |
| 20260506225521 | 30 | 0 | 0.0 | 4.8 | 0.00 | 0.00 | 0.00 | 48 | 1012.3 |
| 20260506225020 | 30 | 0 | 0.0 | 9.7 | 0.00 | 0.00 | 0.00 | 47 | 1012.3 |
| 20260506224536 | 30 | 0 | 0.0 | 9.7 | 0.00 | 0.00 | 0.00 | 47 | 1012.3 |
| 20260506224021 | 30 | 0 | 0.0 | 3.2 | 0.00 | 0.00 | 0.00 | 47 | 1012.2 |
| 20260506223519 | 31 | 0 | 0.0 | 6.4 | 0.00 | 0.00 | 0.00 | 46 | 1012.5 |
| 20260506223036 | 31 | 0 | 0.0 | 6.4 | 0.00 | 0.00 | 0.00 | 47 | 1012.4 |
| 20260506222521 | 31 | 244 | 0.0 | 6.4 | 0.00 | 0.00 | 0.00 | 47 | 1012.4 |
| 20260506222023 | 31 | 0 | 0.0 | 11.3 | 0.00 | 0.00 | 0.00 | 48 | 1012.5 |
| 20260506221540 | 31 | 0 | 0.0 | 11.3 | 0.00 | 0.00 | 0.00 | 46 | 1012.3 |
| 20260506221019 | 31 | 0 | 1.6 | 11.3 | 0.00 | 0.00 | 0.00 | 46 | 1012.3 |
| 20260506220520 | 31 | 200 | 0.0 | 6.4 | 0.00 | 0.00 | 0.00 | 47 | 1012.4 |
| 20260506220034 | 31 | 0 | 0.0 | 4.8 | 0.00 | 0.00 | 0.00 | 48 | 1012.5 |
| 20260506215520 | 31 | 0 | 0.0 | 4.8 | 0.00 | 0.00 | 0.00 | 49 | 1012.5 |
| 20260506215020 | 31 | 0 | 0.0 | 4.8 | 0.00 | 0.00 | 0.00 | 48 | 1012.6 |
| 20260506214538 | 31 | 0 | 0.0 | 3.2 | 0.00 | 0.00 | 0.00 | 49 | 1012.7 |
| 20260506214020 | 31 | 0 | 0.0 | 3.2 | 0.00 | 0.00 | 0.00 | 49 | 1012.7 |
| 20260506213519 | 31 | 0 | 0.0 | 6.4 | 0.00 | 0.00 | 0.00 | 51 | 1012.5 |
| 20260506213037 | 31 | 96 | 0.0 | 6.4 | 0.00 | 0.00 | 0.00 | 49 | 1012.5 |
| 20260506212521 | 31 | 36 | 1.6 | 6.4 | 0.00 | 0.00 | 0.00 | 51 | 1012.5 |
| 20260506212020 | 31 | 0 | 0.0 | 4.8 | 0.00 | 0.00 | 0.00 | 50 | 1012.3 |
| 20260506211536 | 31 | 0 | 0.0 | 4.8 | 0.00 | 0.00 | 0.00 | 50 | 1012.6 |
| 20260506211021 | 31 | 0 | 0.0 | 3.2 | 0.00 | 0.00 | 0.00 | 51 | 1012.6 |
| 20260506210526 | 31 | 0 | 0.0 | 4.8 | 0.00 | 0.00 | 0.00 | 51 | 1012.6 |
| 20260506210037 | 31 | 0 | 0.0 | 16.1 | 0.00 | 0.00 | 0.00 | 50 | 1012.5 |
| 20260506205519 | 31 | 0 | 1.6 | 16.1 | 0.00 | 0.00 | 0.00 | 50 | 1012.5 |
| 20260506205024 | 31 | 310 | 0.0 | 9.7 | 0.00 | 0.00 | 0.00 | 52 | 1012.6 |
| 20260506204536 | 31 | 0 | 1.6 | 9.7 | 0.00 | 0.00 | 0.00 | 51 | 1012.6 |
| 20260506204022 | 31 | 22 | 0.0 | 6.4 | 0.00 | 0.00 | 0.00 | 52 | 1012.8 |
| 20260506203520 | 30 | 0 | 0.0 | 6.4 | 0.00 | 0.00 | 0.00 | 54 | 1012.8 |
| 20260506203039 | 30 | 0 | 0.0 | 6.4 | 0.00 | 0.00 | 0.00 | 54 | 1012.8 |
| 20260506202520 | 30 | 137 | 0.0 | 8.0 | 0.00 | 0.00 | 0.00 | 54 | 1012.8 |
| 20260506202020 | 30 | 0 | 0.0 | 9.7 | 0.00 | 0.00 | 0.00 | 54 | 1013.0 |
| 20260506201537 | 30 | 0 | 1.6 | 9.7 | 0.00 | 0.00 | 0.00 | 54 | 1013.3 |
| 20260506201022 | 30 | 0 | 0.0 | 4.8 | 0.00 | 0.00 | 0.00 | 55 | 1013.5 |
| 20260506200522 | 30 | 0 | 0.0 | 8.0 | 0.00 | 0.00 | 0.00 | 56 | 1013.6 |
| 20260506200041 | 29 | 0 | 1.6 | 8.0 | 0.00 | 0.00 | 0.00 | 57 | 1013.7 |
| 20260506195520 | 29 | 248 | 0.0 | 8.0 | 0.00 | 0.00 | 0.00 | 56 | 1013.7 |
| 20260506195019 | 28 | 0 | 1.6 | 6.4 | 0.00 | 0.00 | 0.00 | 56 | 1013.8 |
| 20260506194544 | 28 | 253 | 0.0 | 9.7 | 0.00 | 0.00 | 0.00 | 57 | 1013.7 |
| 20260506194018 | 28 | 0 | 0.0 | 9.7 | 0.00 | 0.00 | 0.00 | 58 | 1013.9 |
| 20260506193518 | 28 | 126 | 0.0 | 11.3 | 0.00 | 0.00 | 0.00 | 57 | 1014.0 |
| 20260506193038 | 28 | 142 | 0.0 | 11.3 | 0.00 | 0.00 | 0.00 | 58 | 1013.9 |
| 20260506192521 | 28 | 96 | 0.0 | 9.7 | 0.00 | 0.00 | 0.00 | 59 | 1013.9 |
| 20260506192020 | 27 | 0 | 0.0 | 9.7 | 0.00 | 0.00 | 0.00 | 59 | 1014.1 |
| 20260506191539 | 27 | 0 | 0.0 | 6.4 | 0.00 | 0.00 | 0.00 | 58 | 1014.1 |
| 20260506191021 | 27 | 0 | 0.0 | 6.4 | 0.00 | 0.00 | 0.00 | 60 | 1014.1 |
| 20260506190522 | 27 | 0 | 0.0 | 4.8 | 0.00 | 0.00 | 0.00 | 59 | 1014.1 |
| 20260506190038 | 27 | 0 | 0.0 | 4.8 | 0.00 | 0.00 | 0.00 | 60 | 1014.2 |
| 20260506185520 | 27 | 0 | 0.0 | 6.4 | 0.00 | 0.00 | 0.00 | 61 | 1014.4 |
| 20260506185022 | 27 | 294 | 0.0 | 14.5 | 0.00 | 0.00 | 0.00 | 62 | 1014.7 |
| 20260506184536 | 26 | 0 | 1.6 | 14.5 | 0.00 | 0.00 | 0.00 | 63 | 1014.7 |
| 20260506184021 | 26 | 233 | 0.0 | 9.7 | 0.00 | 0.00 | 0.00 | 64 | 1014.7 |
| 20260506183520 | 26 | 146 | 0.0 | 6.4 | 0.00 | 0.00 | 0.00 | 64 | 1014.6 |
| 20260506183037 | 26 | 338 | 0.0 | 14.5 | 0.00 | 0.00 | 0.00 | 64 | 1014.8 |
| 20260506182519 | 26 | 0 | 0.0 | 14.5 | 0.00 | 0.00 | 0.00 | 64 | 1015.0 |
| 20260506182021 | 26 | 312 | 0.0 | 6.4 | 0.00 | 0.00 | 0.00 | 64 | 1015.0 |
| 20260506181539 | 26 | 273 | 0.0 | 11.3 | 0.00 | 0.00 | 0.00 | 64 | 1015.2 |
| 20260506181023 | 26 | 0 | 0.0 | 11.3 | 0.00 | 0.00 | 0.00 | 65 | 1015.1 |